SCP
0 0 0 0 0 0 0 0 0 0 0 0 0 0 0 0 0 0 0 0 0 0 0 0 0 0 0 0 0 0 0 0
0 0 0 0 0 0 0 0 0 0 0 0 0 0 0 0 0 0 0 0 0 0 0 0 0 0 0 0 0 0 0 0
0 0 0 0 0 0 0 0 0 0 0 0 0 0 0 0 0 0 0 0 0 0 0 0 -0 -0 -0 0 0 0 0 0
0 0 0 0 0 0 -0 -0 -0 0 -0 -0 -0 -0 0 0 0 0 0 0 0 0 0 0 0 0 0 0 0 0 0 0
0 0 0 0 0 0 0 0 0 0 0 0 0 -0 -0 0 0 0 -0 0 0 0 0 0 0 0 0 0 0 0 0 0
0 0 0 0 0 0 0 0 0 0 0 0 0 -0 -0 -0 -0 -0 -0 -0 -0 -0 -0 -0 -0 0 -0 -0 0 0 0 0
0 0 0 0 0 0 0 0 0 0 0 0 0 0 0 0 0 0 0 0 0 0 0 -0 -0 -0 0 0 0 0 0 0
0 0 0 0 0 0 0 0 0 0 0 0 0 0 0 0 0 0 0 0 0 0 0 0 0 0 0 0 0 0 0 0
0 0 0 0 0 0 0 0 0 0 0 0 0 0 0 0 0 0 0 0 0 0 0 0 0 0 0 0 0 0 0 0
0 0 0 0 0 0 0 0 0 0 0 0 0 0 0 0 0 0 0 0 0 0 0 0 0 0 0 0 0 0 0 0
0 0 0 0 0 0 0 0 0 0 0 0 0 0 0 0 0 0 0 0 0 0 0 0 0 0 0 0 0 0 0 0
0 0 0 0 0 0 0 0 0 0 0 0 0 0 0 0 0 0 0 0 0 0 0 0 0 0 0 0 0 0 0 0
0 0 0 0 0 0 0 0 0 0 0 0 0 0 0 0 0 0 0 0 0 0 0 0 0 0 0 0 0 0 0 0
0 0 0 0 0 0 0 0 0 0 0 0 0 0 0 0 0 0 0 0 0 0 0 0 0 0 0 0 0 0 0 0
0 0 0 0 0 0 0 0 0 0 0 0 0 0 0 0 0 0 0 0 0 0 0 0 0 0 0 0 0 0 0 0
0 0 0 0 0 0 0 0 0 0 0 0 0 0 0 0 0 0 0 0 0 0 0 0 0 0 0 0 0 0 0 0
0 0 0 0 0 0 0 0 0 0 0 0 0 0 0 0 0 0 0 -0 0 0 0 0 0 0 0 0 0 0 0 0
0 0 0 0 0 0 0 0 0 0 0 0 0 0 0 0 0 -0 0 0 0 0 0 0 0 0 0 0 0 -0 0 0
0 0 0 0 0 0 0 0 0 0 0 0 0 0 0 0 0 0 0 0 0 0 0 0 0 0 0 0 0 0 0 0
0 0 0 0 0 0 0 0 0 0 0 0 0 0 0 0 0 0 0 0 0 0 0 0 0 0 0 0 0 0 0 0
Wind_Speed_500mb
6 9 7 6 6 8 9 13 18 18 20 22 25 28 31 34 38 37 39 42 44 45 45 40 37 38 38 38 40 46 47 47
14 10 8 2 5 7 8 11 13 17 21 25 28 31 33 34 37 42 46 49 51 54 56 56 53 53 52 48 50 52 50 49
19 14 10 6 5 5 7 12 13 15 21 25 29 32 37 41 46 49 53 54 57 58 61 64 65 65 65 64 61 62 63 60
21 18 14 9 4 2 7 15 23 28 31 34 37 41 46 50 53 56 61 63 65 69 71 73 72 74 75 77 77 76 73 70
23 19 16 11 9 13 17 23 29 35 42 46 49 54 59 63 65 66 67 70 73 76 80 82 84 85 85 85 87 89 90 88
25 22 19 18 22 25 25 28 33 38 44 50 55 60 65 68 71 76 81 86 91 96 97 96 96 96 98 98 95 97 98 98
35 35 31 28 32 32 33 36 41 45 49 53 60 64 66 71 77 84 91 95 98 100 103 105 108 107 98 79 85 94 102 109
24 24 27 31 34 38 38 39 42 45 48 56 61 64 71 77 82 87 91 97 100 102 103 107 108 103 73 71 74 84 93 104
26 33 39 37 37 37 38 40 43 49 54 56 64 72 77 81 85 87 89 93 98 103 104 109 111 99 78 71 77 87 94 99
37 38 40 39 38 39 40 44 49 50 54 64 71 75 78 83 85 86 91 95 98 99 101 101 101 88 77 68 78 88 97 100
42 45 46 42 39 40 43 44 43 48 60 69 73 78 82 81 83 87 90 94 95 97 89 85 85 73 64 55 61 73 79 82
45 48 45 43 42 44 45 46 48 56 65 67 70 75 77 80 81 84 87 91 91 86 80 75 69 64 56 52 57 67 76 80
48 50 47 45 45 47 47 48 53 62 66 67 69 68 70 75 78 79 83 84 80 77 78 72 66 65 63 55 57 61 74 85
50 51 49 46 44 48 48 50 58 64 66 66 66 65 67 70 73 76 75 71 72 73 77 82 81 81 79 70 68 63 70 81
51 48 45 45 50 47 48 53 59 62 65 65 65 66 66 65 64 67 67 66 68 74 85 86 80 77 75 80 81 88 83 89
49 47 44 47 45 47 48 54 57 59 62 61 62 64 64 63 59 61 62 57 66 73 76 82 80 78 70 75 77 81 86 88
48 47 47 44 41 46 50 53 55 58 58 57 59 59 58 61 62 47 54 55 55 57 58 65 67 68 70 73 71 72 74 81
49 50 46 43 43 48 49 49 50 55 54 54 53 53 53 54 59 70 59 55 53 45 51 54 60 63 64 66 68 69 63 68
48 47 46 46 42 47 48 47 48 48 48 49 48 47 47 48 51 56 62 66 62 55 58 53 55 60 61 60 55 54 43 47
47 42 44 48 43 47 47 46 44 46 44 43 42 41 41 42 44 47 52 55 58 61 58 56 68 64 52 47 47 52 56 57
Wind_Direction_500mb
295 313 323 341 9 29 34 32 32 29 22 14 10 1 355 354 349 349 346 340 339 337 334 330 328 322 317 316 313 307 303 296
242 254 271 270 103 82 62 44 21 1 355 353 353 348 343 341 337 337 336 332 330 326 323 322 322 319 316 313 309 306 302 300
231 224 217 190 145 111 57 17 6 0 355 349 341 335 333 333 332 330 326 323 322 319 315 314 313 312 312 311 311 306 302 302
213 213 208 201 212 270 353 357 348 344 341 338 334 333 333 332 328 326 321 318 314 313 310 308 307 306 305 306 304 301 300 299
215 222 225 236 273 287 296 315 321 327 330 329 327 328 327 326 324 321 318 315 311 308 306 304 302 299 298 296 295 295 294 293
224 229 237 261 283 291 299 301 302 305 312 314 315 317 319 319 317 316 314 312 310 308 305 302 299 298 299 299 297 292 289 285
237 239 242 258 266 268 266 274 286 293 297 300 306 310 311 311 310 309 308 306 305 303 302 301 300 299 299 298 295 292 290 288
231 234 248 258 250 252 254 268 272 279 287 295 301 304 307 307 307 306 304 303 302 301 301 299 297 297 296 294 289 287 286 286
240 258 258 252 258 257 264 272 281 289 295 301 305 308 309 308 308 307 306 306 305 303 301 298 296 297 295 291 281 275 274 277
269 267 256 252 250 253 260 273 283 292 301 307 310 312 312 312 312 312 311 310 308 306 304 303 301 303 302 298 290 284 278 275
265 254 248 248 251 260 273 282 288 298 307 312 314 314 315 314 315 316 315 313 312 310 309 306 305 308 306 300 294 292 291 290
267 256 243 250 263 275 282 287 295 306 310 312 314 315 314 316 318 317 317 317 314 311 310 310 313 317 314 301 294 291 293 294
258 245 246 257 269 276 282 288 300 309 313 315 314 313 314 317 319 320 323 317 314 314 316 319 322 323 319 301 294 292 289 288
246 242 250 263 274 279 283 294 305 310 313 314 314 316 319 320 323 327 322 316 317 319 322 325 327 325 322 309 303 295 292 294
243 248 258 267 275 278 287 298 305 310 313 314 315 319 321 324 331 326 321 319 321 325 320 317 313 310 307 308 312 311 305 302
248 253 260 270 273 282 291 299 305 309 310 314 315 319 323 326 334 328 325 318 312 308 308 309 306 307 308 304 302 301 300 299
255 261 269 272 277 284 293 300 305 307 309 312 314 320 325 327 328 332 328 325 307 306 305 306 305 308 309 306 304 302 300 297
265 272 273 276 281 286 292 297 301 303 305 308 314 320 326 329 331 331 339 342 338 324 319 317 315 315 317 314 310 304 300 291
269 271 270 274 282 286 290 294 297 299 300 306 314 320 325 328 332 333 337 343 350 350 344 336 331 328 327 324 322 320 325 319
269 270 275 280 287 287 291 292 294 293 297 303 312 321 323 325 331 336 342 345 348 351 353 353 351 339 338 342 343 341 338 336
Wind_Speed_850mb
6 9 7 6 6 8 9 13 18 18 20 22 25 28 31 34 38 37 39 42 44 45 45 40 37 38 38 38 40 46 47 47
14 10 8 2 5 7 8 11 13 17 21 25 28 31 33 34 37 42 46 49 51 54 56 56 53 53 52 48 50 52 50 49
19 14 10 6 5 5 7 12 13 15 21 25 29 32 37 41 46 49 53 54 57 58 61 64 65 65 65 64 61 62 63 60
21 18 14 9 4 2 7 15 23 28 31 34 37 41 46 50 53 56 61 63 65 69 71 73 72 74 75 77 77 76 73 70
23 19 16 11 9 13 17 23 29 35 42 46 49 54 59 63 65 66 67 70 73 76 80 82 84 85 85 85 87 89 90 88
25 22 19 18 22 25 25 28 33 38 44 50 55 60 65 68 71 76 81 86 91 96 97 96 96 96 98 98 95 97 98 98
35 35 31 28 32 32 33 36 41 45 49 53 60 64 66 71 77 84 91 95 98 100 103 105 108 107 98 79 85 94 102 109
24 24 27 31 34 38 38 39 42 45 48 56 61 64 71 77 82 87 91 97 100 102 103 107 108 103 73 71 74 84 93 104
26 33 39 37 37 37 38 40 43 49 54 56 64 72 77 81 85 87 89 93 98 103 104 109 111 99 78 71 77 87 94 99
37 38 40 39 38 39 40 44 49 50 54 64 71 75 78 83 85 86 91 95 98 99 101 101 101 88 77 68 78 88 97 100
42 45 46 42 39 40 43 44 43 48 60 69 73 78 82 81 83 87 90 94 95 97 89 85 85 73 64 55 61 73 79 82
45 48 45 43 42 44 45 46 48 56 65 67 70 75 77 80 81 84 87 91 91 86 80 75 69 64 56 52 57 67 76 80
48 50 47 45 45 47 47 48 53 62 66 67 69 68 70 75 78 79 83 84 80 77 78 72 66 65 63 55 57 61 74 85
50 51 49 46 44 48 48 50 58 64 66 66 66 65 67 70 73 76 75 71 72 73 77 82 81 81 79 70 68 63 70 81
51 48 45 45 50 47 48 53 59 62 65 65 65 66 66 65 64 67 67 66 68 74 85 86 80 77 75 80 81 88 83 89
49 47 44 47 45 47 48 54 57 59 62 61 62 64 64 63 59 61 62 57 66 73 76 82 80 78 70 75 77 81 86 88
48 47 47 44 41 46 50 53 55 58 58 57 59 59 58 61 62 47 54 55 55 57 58 65 67 68 70 73 71 72 74 81
49 50 46 43 43 48 49 49 50 55 54 54 53 53 53 54 59 70 59 55 53 45 51 54 60 63 64 66 68 69 63 68
48 47 46 46 42 47 48 47 48 48 48 49 48 47 47 48 51 56 62 66 62 55 58 53 55 60 61 60 55 54 43 47
47 42 44 48 43 47 47 46 44 46 44 43 42 41 41 42 44 47 52 55 58 61 58 56 68 64 52 47 47 52 56 57
Wind_Direction_850mb
295 313 323 341 9 29 34 32 32 29 22 14 10 1 355 354 349 349 346 340 339 337 334 330 328 322 317 316 313 307 303 296
242 254 271 270 103 82 62 44 21 1 355 353 353 348 343 341 337 337 336 332 330 326 323 322 322 319 316 313 309 306 302 300
231 224 217 190 145 111 57 17 6 0 355 349 341 335 333 333 332 330 326 323 322 319 315 314 313 312 312 311 311 306 302 302
213 213 208 201 212 270 353 357 348 344 341 338 334 333 333 332 328 326 321 318 314 313 310 308 307 306 305 306 304 301 300 299
215 222 225 236 273 287 296 315 321 327 330 329 327 328 327 326 324 321 318 315 311 308 306 304 302 299 298 296 295 295 294 293
224 229 237 261 283 291 299 301 302 305 312 314 315 317 319 319 317 316 314 312 310 308 305 302 299 298 299 299 297 292 289 285
237 239 242 258 266 268 266 274 286 293 297 300 306 310 311 311 310 309 308 306 305 303 302 301 300 299 299 298 295 292 290 288
231 234 248 258 250 252 254 268 272 279 287 295 301 304 307 307 307 306 304 303 302 301 301 299 297 297 296 294 289 287 286 286
240 258 258 252 258 257 264 272 281 289 295 301 305 308 309 308 308 307 306 306 305 303 301 298 296 297 295 291 281 275 274 277
269 267 256 252 250 253 260 273 283 292 301 307 310 312 312 312 312 312 311 310 308 306 304 303 301 303 302 298 290 284 278 275
265 254 248 248 251 260 273 282 288 298 307 312 314 314 315 314 315 316 315 313 312 310 309 306 305 308 306 300 294 292 291 290
267 256 243 250 263 275 282 287 295 306 310 312 314 315 314 316 318 317 317 317 314 311 310 310 313 317 314 301 294 291 293 294
258 245 246 257 269 276 282 288 300 309 313 315 314 313 314 317 319 320 323 317 314 314 316 319 322 323 319 301 294 292 289 288
246 242 250 263 274 279 283 294 305 310 313 314 314 316 319 320 323 327 322 316 317 319 322 325 327 325 322 309 303 295 292 294
243 248 258 267 275 278 287 298 305 310 313 314 315 319 321 324 331 326 321 319 321 325 320 317 313 310 307 308 312 311 305 302
248 253 260 270 273 282 291 299 305 309 310 314 315 319 323 326 334 328 325 318 312 308 308 309 306 307 308 304 302 301 300 299
255 261 269 272 277 284 293 300 305 307 309 312 314 320 325 327 328 332 328 325 307 306 305 306 305 308 309 306 304 302 300 297
265 272 273 276 281 286 292 297 301 303 305 308 314 320 326 329 331 331 339 342 338 324 319 317 315 315 317 314 310 304 300 291
269 271 270 274 282 286 290 294 297 299 300 306 314 320 325 328 332 333 337 343 350 350 344 336 331 328 327 324 322 320 325 319
269 270 275 280 287 287 291 292 294 293 297 303 312 321 323 325 331 336 342 345 348 351 353 353 351 339 338 342 343 341 338 336